[[{"header":{"parameterUnit":"m.s-1","parameterCategory":2,"la1":30.2991,"la2":30.254,"lo1":-89.0895,"lo2":-89.0444,"dy":0.0017,"dx":0.0017,"nx":28,"ny":28,"refTime":"2025-08-16T21:00:00:Z","depth":"0","parameterNumber":2,"parameterNumberName":"U-component_of_CURRENTS"},"data":[0,0,0,0,0,0,0,0,0,0,0,0,0,0,0,0,0,0,0,0,0,0,0,0,0,0,0,0,0,0,0,0,0,0,0,0,0,0,0,0,0,0,0,0,0,0,0,0,0,0,0,0,0,0,0,0,0,0,0.3813,0.3813,0,0.3847,0.3848,0.3848,0.3815,0.3814,0.3812,0.3811,0.385,0.3852,0.3855,0,0,0,0,0,0,0,0,0,0,0,0,0,0.3784,0.3785,0.3813,0.3813,0.3814,0.3847,0.3848,0.3848,0.3815,0.3814,0.3812,0.3811,0.385,0.3852,0.3855,0,0,0,0,0,0,0,0,0,0,0,0,0,0.3804,0.3785,0.3813,0.3803,0.3802,0.3847,0.3848,0.3848,0.3815,0.3813,0.3812,0.381,0.3849,0.3852,0.3855,0.3911,0,0,0.3865,0.3866,0,0,0,0,0,0,0,0,0.3803,0.3805,0.3804,0.3803,0.3803,0.3826,0.3852,0.387,0.3816,0.3809,0.3811,0.3809,0.3845,0.3848,0.3857,0.3912,0.3914,0.3865,0.3867,0.3869,0.3869,0,0,0,0,0,0,0,0.3802,0.3804,0.3825,0.3804,0.3804,0.3819,0.3819,0.3855,0.3835,0.3809,0.3807,0.3814,0.3844,0.3854,0.3857,0.3915,0.3865,0.3868,0.387,0.3871,0.4074,0.4077,0,0,0,0,0,0,0.3799,0.3802,0.3824,0.3826,0.38,0.3821,0.3821,0.3819,0.3835,0.3836,0.3816,0.3812,0.3849,0.3854,0.3859,0.3952,0.3869,0.3872,0.3873,0.4071,0.4075,0.4078,0,0,0,0,0,0,0.3798,0.38,0.3823,0.3817,0.3821,0.3823,0.3822,0.3821,0.3824,0.384,0.384,0.3818,0.3848,0.3854,0.3896,0.3952,0.3873,0.3876,0.4066,0.4072,0.4077,0.4121,0,0,0,0,0,0,0.3797,0.3799,0.3799,0.3816,0.3821,0.3851,0.3824,0.3823,0.3832,0.3828,0.3843,0.3845,0.3847,0.3891,0.3899,0.3955,0.3878,0.4062,0.4069,0.4075,0.4115,0.4127,0.4137,0,0,0,0,0,0.3796,0.3807,0.3798,0.3801,0.3819,0.3852,0.3856,0.3851,0.3834,0.3845,0.3856,0.3844,0.3939,0.3896,0.3904,0.3962,0.4059,0.4067,0.4074,0.411,0.4125,0.4137,0,0,0,0,0,0,0.3799,0.3806,0.3796,0.3809,0.3827,0.3846,0.3865,0.3856,0.3875,0.3873,0.3873,0.3878,0.3943,0.3953,0.3905,0.4046,0.4005,0.4014,0.4029,0.4043,0.4054,0.4,0.3881,0,0,0,0,0,0.38,0.3809,0.3819,0.3834,0.3845,0.3854,0.3866,0.3865,0.3884,0.3888,0.3899,0.3934,0.3988,0.4008,0.4051,0.4116,0.4129,0.4169,0.418,0.4189,0.4156,0.4217,0.4229,0.4104,0.4104,0.4104,0,0,0.3809,0.3814,0.382,0.3836,0.3853,0.3877,0.3857,0.3886,0.3909,0.3895,0.3935,0.3969,0.4015,0.409,0.4123,0.4099,0.4249,0.4198,0.4205,0.4166,0.4226,0.4237,0.4247,0.4109,0.4108,0.4107,0,0,0.3829,0.3837,0.3843,0.3868,0.3892,0.3904,0.3911,0.3932,0.3944,0.3993,0.4001,0.4051,0.4126,0.4162,0.4195,0.4295,0.4305,0.4337,0.4343,0.4405,0.4413,0.4421,0.4512,0.4528,0.434,0.434,0.4341,0,0.3831,0.3838,0.3856,0.3877,0.39,0.3915,0.3935,0.3967,0.3998,0.4023,0.4013,0.413,0.4159,0.425,0.428,0.4315,0.4357,0.4282,0.4413,0.4421,0.4428,0.4519,0.4535,0.4343,0.4343,0.4343,0.4343,0,0.385,0.3865,0.3885,0.3908,0.3943,0.3971,0.4013,0.4049,0.4069,0.4095,0.4179,0.4217,0.4276,0.4323,0.4323,0.4411,0.4432,0.4418,0.4364,0.4442,0.4536,0.4552,0.4348,0.4347,0.4346,0.4345,0,0,0.381,0.3875,0.3878,0.3898,0.3957,0.3986,0.4055,0.4109,0.4153,0.42,0.426,0.4341,0.4345,0.4379,0.4406,0.4446,0.4553,0.4443,0.4445,0.4506,0.4718,0.4608,0.4616,0.4559,0.4561,0.4563,0.4783,0,0.3802,0.384,0.3879,0.3932,0.3957,0.402,0.4084,0.4151,0.4207,0.4279,0.4335,0.4407,0.4378,0.4416,0.445,0.4533,0.4588,0.4495,0.4655,0.4659,0.4527,0.4626,0.4392,0.4554,0.4798,0.4801,0.4803,0,0.378,0.3815,0.3854,0.3942,0.396,0.3999,0.4103,0.4162,0.428,0.4333,0.4399,0.4448,0.4534,0.4489,0.4632,0.4578,0.4634,0.4684,0.4694,0.4565,0.4575,0.4507,0.4573,0.4469,0.4827,0.4825,0.4823,0,0.3721,0.379,0.3818,0.385,0.3956,0.3994,0.405,0.4168,0.4236,0.4362,0.4431,0.4526,0.4602,0.4665,0.4745,0.471,0.4897,0.488,0.4841,0.4838,0.4649,0.4622,0.4589,0.4962,0.4962,0.4961,0.496,0,0.3685,0.371,0.3791,0.3815,0.3872,0.3958,0.403,0.4117,0.4242,0.4333,0.4435,0.4525,0.4642,0.4757,0.4799,0.487,0.4955,0.4845,0.4876,0.4667,0.464,0.4545,0.4503,0.4969,0.4968,0.4966,0.4965,0,0.3624,0.3668,0.3717,0.3817,0.3844,0.389,0.4011,0.4081,0.42,0.4326,0.4375,0.4571,0.4719,0.4826,0.498,0.4952,0.4884,0.5027,0.4782,0.4774,0.4578,0.4547,0.4392,0.427,0.5027,0.5025,0.5024,0,0.3591,0.3609,0.3706,0.3746,0.3788,0.3859,0.3923,0.4045,0.4126,0.4341,0.441,0.4604,0.4702,0.4896,0.4892,0.4968,0.4852,0.4799,0.4649,0.4527,0.452,0.437,0.4268,0.4475,0.4469,0.4465,0.4461,0,0.3557,0.3593,0.3651,0.3721,0.3779,0.3835,0.3925,0.397,0.4128,0.4237,0.4392,0.4483,0.4649,0.4613,0.4697,0.4704,0.4533,0.4701,0.4635,0.4112,0.3887,0.3796,0.4415,0.4419,0.4423,0.4426,0.4428,0.443,0.3537,0.3573,0.3646,0.3701,0.3763,0.3789,0.3774,0.3878,0.3959,0.4041,0.4243,0.4279,0.4344,0.4405,0.4404,0.423,0.4251,0.4096,0.4096,0.3977,0.3729,0.4252,0.4232,0.4235,0.4237,0.424,0.4242,0,0.3511,0.356,0.3622,0.3662,0.3663,0.3717,0.3763,0.3706,0.3715,0.3846,0.3912,0.3896,0.3861,0.3902,0.3797,0.3654,0.3497,0.3566,0.3308,0.326,0.3789,0.363,0.3401,0.3401,0.3401,0.3401,0.3402,0.3402,0.35,0.3544,0.3567,0.3535,0.3544,0.345,0.3421,0.3372,0.3405,0.3335,0.3292,0.3341,0.3471,0.3486,0.3342,0.3259,0.3043,0.286,0.293,0.3317,0.3366,0.3413,0.3253,0.2948,0.2948,0.2223,0.2218,0.2214]},{"header":{"parameterUnit":"m.s-1","parameterCategory":2,"la1":30.2991,"la2":30.254,"lo1":-89.0895,"lo2":-89.0444,"dy":0.0017,"dx":0.0017,"nx":28,"ny":28,"refTime":"2025-08-16T21:00:00:Z","depth":"0","parameterNumber":3,"parameterNumberName":"V-component_of_CURRENTS"},"data":[0,0,0,0,0,0,0,0,0,0,0,0,0,0,0,0,0,0,0,0,0,0,0,0,0,0,0,0,0,0,0,0,0,0,0,0,0,0,0,0,0,0,0,0,0,0,0,0,0,0,0,0,0,0,0,0,0,0,0.0021,0.0021,0,-0.0039,-0.004,-0.0041,-0.0078,-0.0078,-0.0078,-0.0078,-0.0211,-0.0214,-0.0218,0,0,0,0,0,0,0,0,0,0,0,0,0,0.0074,0.0074,0.0021,0.0021,0.002,-0.0039,-0.004,-0.0041,-0.0078,-0.0078,-0.0078,-0.0078,-0.021,-0.0214,-0.0218,0,0,0,0,0,0,0,0,0,0,0,0,0,0.0036,0.0074,0.0021,-0.0005,-0.0008,-0.0039,-0.004,-0.0041,-0.0078,-0.0078,-0.0078,-0.0078,-0.0209,-0.0214,-0.0219,-0.0245,0,0,-0.0234,-0.0236,0,0,0,0,0,0,0,0,0.0038,0.0034,-0.0001,-0.0004,-0.0007,-0.0051,-0.007,-0.0113,-0.0078,-0.0052,-0.0078,-0.0078,-0.0164,-0.0173,-0.0183,-0.0252,-0.0257,-0.0235,-0.0238,-0.024,-0.0241,0,0,0,0,0,0,0,0.0041,0.0036,-0.0003,-0.0001,-0.0005,-0.0025,-0.003,-0.0078,-0.0107,-0.0054,-0.0057,-0.0063,-0.0166,-0.0178,-0.0187,-0.0259,-0.0234,-0.0239,-0.0242,-0.0244,-0.0386,-0.0386,0,0,0,0,0,0,0.0051,0.0039,-0.0001,-0.0005,0.0016,-0.0026,-0.0032,-0.0037,-0.0105,-0.0115,-0.0063,-0.0064,-0.0169,-0.0181,-0.0191,-0.0222,-0.024,-0.0245,-0.0248,-0.0385,-0.0386,-0.0386,0,0,0,0,0,0,0.0052,0.0048,0.0001,0.0016,0.0009,-0.0026,-0.0032,-0.0038,-0.0048,-0.0111,-0.0123,-0.0065,-0.017,-0.0184,-0.0224,-0.0227,-0.0247,-0.0252,-0.0384,-0.0385,-0.0386,-0.0286,0,0,0,0,0,0,0.0054,0.0049,0.0051,0.0017,0.0008,-0.0009,-0.0032,-0.0039,-0.0051,-0.0054,-0.0118,-0.013,-0.0171,-0.0216,-0.0229,-0.0235,-0.0256,-0.0383,-0.0385,-0.0386,-0.0288,-0.0284,-0.0279,0,0,0,0,0,0.0056,0.0061,0.0052,0.0047,0.0012,-0.0009,-0.0014,-0.004,-0.0051,-0.0051,-0.009,-0.0128,-0.0234,-0.0219,-0.0235,-0.0243,-0.0382,-0.0384,-0.0386,-0.029,-0.0284,-0.0279,0,0,0,0,0,0,0.0084,0.0056,0.0046,0.0041,0.0022,-0.0015,-0.0017,-0.0035,-0.0065,-0.0071,-0.0127,-0.0142,-0.018,-0.023,-0.0212,-0.0292,-0.032,-0.0324,-0.0242,-0.0237,-0.0233,-0.0175,-0.026,0,0,0,0,0,0.0092,0.0088,0.0059,0.0056,0.005,0.0018,0.0007,-0.0011,-0.0043,-0.0056,-0.0096,-0.0151,-0.02,-0.0229,-0.0277,-0.0317,-0.0299,-0.0338,-0.0334,-0.0329,-0.0295,-0.0266,-0.0254,-0.0392,-0.0392,-0.0392,0,0,0.01,0.0086,0.0082,0.0062,0.0045,0.0047,0.0011,-0.0002,-0.0001,-0.0068,-0.0079,-0.0131,-0.0205,-0.0243,-0.0267,-0.0284,-0.0282,-0.0331,-0.0326,-0.0294,-0.0266,-0.0252,-0.0239,-0.0393,-0.0393,-0.0392,0,0,0.0124,0.0104,0.0115,0.0105,0.0085,0.0066,0.0067,0.0036,0.0022,0.0001,-0.0048,-0.0084,-0.0166,-0.0203,-0.0238,-0.024,-0.0252,-0.0285,-0.0218,-0.019,-0.0177,-0.0165,-0.0109,-0.0093,-0.0288,-0.0288,-0.0288,0,0.0138,0.0147,0.0115,0.0128,0.0127,0.0082,0.01,0.0078,0.0039,0.004,0.0008,-0.0065,-0.0137,-0.016,-0.0174,-0.0223,-0.0201,-0.0226,-0.0177,-0.0165,-0.0154,-0.0101,-0.0084,-0.0284,-0.0284,-0.0285,-0.0285,0,0.0174,0.0183,0.0188,0.0192,0.0186,0.0189,0.0161,0.0154,0.0129,0.0114,0.0096,0.0022,-0.0013,-0.0065,-0.0126,-0.0106,-0.0111,-0.0162,-0.0173,-0.0133,-0.0081,-0.0065,-0.0277,-0.0279,-0.028,-0.0281,0,0,0.0208,0.0214,0.022,0.024,0.0222,0.0227,0.0227,0.0228,0.0259,0.0208,0.0256,0.0148,0.0127,0.0086,0.001,0.0012,0.0086,-0.0045,-0.0046,0.0044,0.0179,0.014,0.0153,0.0045,0.0048,0.005,0.0194,0,0.0252,0.0297,0.0282,0.0327,0.035,0.0318,0.0337,0.033,0.0317,0.0352,0.0288,0.0296,0.0176,0.0174,0.0155,0.0105,0.0129,0.0054,0.0098,0.0101,0.0088,0.0169,0.0122,0.0242,0.0209,0.0211,0.0213,0,0.0301,0.0327,0.0376,0.0415,0.0425,0.0444,0.0483,0.0495,0.0513,0.0511,0.0509,0.0473,0.0463,0.0364,0.0347,0.0305,0.026,0.0223,0.0226,0.0172,0.009,0.0188,0.0272,0.0101,0.0237,0.0235,0.0234,0,0.0357,0.0398,0.0443,0.0453,0.0483,0.0508,0.053,0.0551,0.0597,0.0637,0.0697,0.0661,0.0694,0.0619,0.0514,0.0445,0.0523,0.0417,0.0357,0.0355,0.0317,0.0306,0.0271,0.0446,0.0445,0.0445,0.0445,0,0.0413,0.0456,0.0478,0.0506,0.0584,0.0583,0.0673,0.0688,0.0759,0.0861,0.08,0.0892,0.0763,0.0768,0.0628,0.0566,0.062,0.0417,0.0399,0.0347,0.0337,0.0184,0.0073,0.045,0.0449,0.0448,0.0447,0,0.047,0.0479,0.0541,0.0587,0.061,0.0671,0.0769,0.0849,0.09,0.1042,0.1076,0.1115,0.1128,0.1,0.0927,0.0753,0.0566,0.0627,0.0588,0.056,0.0283,0.018,0.0157,0.0081,0.0586,0.0586,0.0586,0,0.0507,0.054,0.0604,0.0657,0.0682,0.0771,0.0847,0.0911,0.1011,0.1184,0.1279,0.1354,0.1416,0.1302,0.1036,0.0849,0.0647,0.065,0.0481,0.0307,0.0178,0.0098,0.003,0.0486,0.0485,0.0485,0.0484,0,0.0579,0.0592,0.0641,0.0746,0.0828,0.0932,0.1049,0.1148,0.1263,0.1404,0.1605,0.168,0.1582,0.1384,0.1106,0.0927,0.0492,0.0627,0.046,0.0126,0.0027,-0.0068,0.0369,0.0478,0.0479,0.0479,0.0479,0.048,0.0636,0.068,0.0743,0.0845,0.0949,0.1091,0.1192,0.1345,0.1535,0.1755,0.1825,0.1971,0.1648,0.1268,0.1004,0.0475,0.0485,0.0263,0.0171,0.0122,-0.0018,0.0418,0.0474,0.0475,0.0475,0.0476,0.0476,0,0.0709,0.0751,0.0848,0.097,0.11,0.1139,0.133,0.145,0.1684,0.1901,0.2074,0.2007,0.1583,0.1133,0.0431,0.0065,-0.0082,-0.0128,-0.0267,-0.0303,0.0108,0.0029,-0.0026,-0.0026,-0.0026,-0.0025,-0.0025,-0.0025,0.0753,0.0836,0.0874,0.1075,0.1175,0.135,0.1459,0.1643,0.1821,0.2067,0.2171,0.2233,0.1884,0.0657,-0.016,-0.0344,-0.0606,-0.0664,-0.0748,-0.0515,-0.0487,-0.046,-0.056,-0.0737,-0.0738,-0.1142,-0.1147,-0.115]}],[{"header":{"parameterUnit":"m.s-1","parameterCategory":2,"la1":30.2991,"la2":30.254,"lo1":-89.0895,"lo2":-89.0444,"dy":0.0017,"dx":0.0017,"nx":28,"ny":28,"refTime":"2025-08-16T21:00:00:Z","depth":"2","parameterNumber":2,"parameterNumberName":"U-component_of_CURRENTS"},"data":[0,0,0,0,0,0,0,0,0,0,0,0,0,0,0,0,0,0,0,0,0,0,0,0,0,0,0,0,0,0,0,0,0,0,0,0,0,0,0,0,0,0,0,0,0,0,0,0,0,0,0,0,0,0,0,0,0,0,0.2632,0.2633,0,0.2628,0.2627,0.2626,0.2596,0.2596,0.2596,0.2595,0.2636,0.2637,0.2638,0,0,0,0,0,0,0,0,0,0,0,0,0,0.261,0.261,0.2632,0.2633,0.2634,0.2628,0.2627,0.2626,0.2596,0.2596,0.2596,0.2595,0.2635,0.2636,0.2638,0,0,0,0,0,0,0,0,0,0,0,0,0,0.2607,0.261,0.2632,0.2623,0.2623,0.2628,0.2627,0.2626,0.2596,0.2596,0.2596,0.2595,0.2635,0.2636,0.2638,0.2649,0,0,0.2643,0.2644,0,0,0,0,0,0,0,0,0.2607,0.2606,0.2624,0.2624,0.2624,0.2619,0.2634,0.2639,0.2596,0.2598,0.2595,0.2595,0.2639,0.264,0.2628,0.2651,0.2653,0.2643,0.2644,0.2645,0.2645,0,0,0,0,0,0,0,0.2607,0.2607,0.2623,0.2625,0.2625,0.2619,0.2617,0.2634,0.2614,0.2598,0.2597,0.2609,0.2638,0.2626,0.2629,0.2654,0.2643,0.2645,0.2646,0.2646,0.2673,0.2673,0,0,0,0,0,0,0.2623,0.2607,0.2623,0.2623,0.2624,0.262,0.2618,0.2614,0.2613,0.2614,0.2609,0.2608,0.2624,0.2627,0.2631,0.272,0.2645,0.2646,0.2647,0.2674,0.2673,0.2673,0,0,0,0,0,0,0.2623,0.2624,0.2623,0.2622,0.2622,0.2621,0.2617,0.2614,0.2629,0.2622,0.2623,0.2631,0.2624,0.2628,0.2682,0.2719,0.2647,0.2649,0.2674,0.2674,0.2673,0.2851,0,0,0,0,0,0,0.2622,0.2623,0.2631,0.2623,0.2623,0.2645,0.2618,0.2615,0.2639,0.2637,0.2641,0.2643,0.2624,0.268,0.2684,0.272,0.265,0.2674,0.2674,0.2673,0.2845,0.2857,0.2866,0,0,0,0,0,0.262,0.2632,0.2631,0.2634,0.2631,0.2647,0.2646,0.264,0.2641,0.2651,0.2668,0.2644,0.2676,0.2683,0.2687,0.2725,0.2675,0.2674,0.2673,0.2841,0.2855,0.2866,0,0,0,0,0,0,0.2621,0.2631,0.2629,0.2641,0.2654,0.2645,0.2661,0.2662,0.268,0.2683,0.2677,0.2681,0.2728,0.2693,0.2701,0.2717,0.2657,0.2657,0.2782,0.2795,0.2805,0.2802,0.2651,0,0,0,0,0,0.2628,0.2643,0.2649,0.2664,0.2674,0.2675,0.2685,0.268,0.2695,0.2701,0.271,0.2706,0.2721,0.2738,0.2729,0.2771,0.2764,0.2776,0.2787,0.2797,0.2789,0.2835,0.2852,0.2671,0.2671,0.2671,0,0,0.2632,0.2644,0.265,0.2667,0.2675,0.269,0.2679,0.2701,0.2717,0.2706,0.2744,0.2755,0.2737,0.2775,0.2789,0.2762,0.2849,0.2796,0.2806,0.2792,0.2837,0.2855,0.2872,0.2671,0.2671,0.2671,0,0,0.265,0.2661,0.2678,0.27,0.2727,0.2718,0.2737,0.2746,0.2756,0.28,0.2792,0.2849,0.2847,0.2866,0.2869,0.2931,0.2903,0.2896,0.2965,0.3012,0.3029,0.3044,0.3096,0.3114,0.2904,0.2904,0.2905,0,0.2656,0.2668,0.2688,0.2719,0.2732,0.274,0.2753,0.2772,0.2799,0.2826,0.2823,0.2872,0.2893,0.2953,0.2976,0.2966,0.2971,0.294,0.3035,0.3048,0.306,0.311,0.3127,0.2913,0.2912,0.2911,0.291,0,0.2684,0.2701,0.2721,0.275,0.2769,0.2785,0.2811,0.2836,0.2854,0.2882,0.2951,0.2988,0.3016,0.3034,0.304,0.3121,0.3093,0.3054,0.3024,0.3091,0.3137,0.3152,0.2925,0.2922,0.2919,0.2917,0,0,0.2658,0.2721,0.2726,0.2742,0.278,0.2793,0.2834,0.2869,0.2919,0.2962,0.3036,0.31,0.3133,0.3135,0.3154,0.3211,0.3353,0.3176,0.3175,0.3266,0.346,0.3321,0.3324,0.3332,0.3335,0.3337,0.3474,0,0.2661,0.2702,0.2733,0.2764,0.2777,0.281,0.2852,0.2902,0.2953,0.3038,0.3105,0.3186,0.3165,0.3217,0.3271,0.3329,0.3392,0.3319,0.3344,0.3345,0.3246,0.3336,0.3082,0.317,0.3488,0.3491,0.3493,0,0.2663,0.2684,0.271,0.2762,0.2774,0.2804,0.2863,0.291,0.3034,0.309,0.3178,0.3239,0.336,0.3329,0.345,0.3398,0.3437,0.3474,0.3479,0.3288,0.3233,0.314,0.3185,0.3517,0.3515,0.3514,0.3512,0,0.2607,0.2665,0.2674,0.2697,0.2762,0.2789,0.2825,0.293,0.2998,0.3147,0.3223,0.3337,0.3422,0.3477,0.3546,0.3516,0.3664,0.3632,0.3539,0.3531,0.3284,0.3247,0.3712,0.3711,0.3711,0.3711,0.371,0,0.2585,0.2591,0.2659,0.2667,0.2707,0.277,0.284,0.2907,0.3045,0.3142,0.3253,0.3346,0.3462,0.3553,0.359,0.3604,0.3695,0.3566,0.3558,0.3336,0.3305,0.3555,0.3535,0.3716,0.3715,0.3714,0.3713,0,0.2523,0.2565,0.2582,0.265,0.2683,0.2717,0.2842,0.2908,0.3031,0.316,0.3221,0.34,0.35,0.3578,0.3705,0.3652,0.3696,0.3673,0.3407,0.3362,0.353,0.3517,0.3607,0.3603,0.36,0.3597,0.3595,0,0.2483,0.2493,0.2562,0.2598,0.2634,0.2704,0.2763,0.289,0.2966,0.3173,0.3232,0.3398,0.3461,0.3575,0.3556,0.3577,0.365,0.3331,0.3214,0.3537,0.3521,0.3513,0.3504,0.2991,0.2984,0.2978,0.2974,0,0.2414,0.245,0.2476,0.2544,0.2605,0.2674,0.2764,0.2821,0.2968,0.304,0.3172,0.3255,0.3366,0.3274,0.3283,0.3259,0.3301,0.321,0.3644,0.3028,0.2959,0.2942,0.2954,0.2923,0.2928,0.2932,0.2934,0.2936,0.2363,0.2381,0.2435,0.2493,0.2569,0.2635,0.2624,0.2711,0.2772,0.2835,0.3004,0.2993,0.3059,0.2935,0.2858,0.2802,0.302,0.2889,0.2907,0.2931,0.2805,0.2731,0.2632,0.2635,0.2638,0.264,0.2642,0,0.2316,0.2358,0.2393,0.2442,0.2456,0.2553,0.2613,0.2553,0.2527,0.2622,0.2652,0.2459,0.2405,0.247,0.2311,0.2299,0.2283,0.2201,0.2169,0.2223,0.2269,0.2109,0.1752,0.1749,0.1746,0.1743,0,0,0.23,0.2301,0.2313,0.2305,0.2356,0.2326,0.2327,0.2248,0.2248,0.2167,0.2132,0.2296,0.2405,0.2045,0.2002,0.1852,0.2018,0.1778,0.2501,0.2519,0.2562,0.2683,0.2498,0,0,0,0,0]},{"header":{"parameterUnit":"m.s-1","parameterCategory":2,"la1":30.2991,"la2":30.254,"lo1":-89.0895,"lo2":-89.0444,"dy":0.0017,"dx":0.0017,"nx":28,"ny":28,"refTime":"2025-08-16T21:00:00:Z","depth":"2","parameterNumber":3,"parameterNumberName":"V-component_of_CURRENTS"},"data":[0,0,0,0,0,0,0,0,0,0,0,0,0,0,0,0,0,0,0,0,0,0,0,0,0,0,0,0,0,0,0,0,0,0,0,0,0,0,0,0,0,0,0,0,0,0,0,0,0,0,0,0,0,0,0,0,0,0,0.0121,0.0121,0,0.0093,0.0093,0.0093,0.0077,0.0077,0.0077,0.0077,0.005,0.0049,0.0049,0,0,0,0,0,0,0,0,0,0,0,0,0,0.0131,0.0131,0.0121,0.0121,0.012,0.0093,0.0093,0.0093,0.0077,0.0077,0.0077,0.0077,0.005,0.0049,0.0049,0,0,0,0,0,0,0,0,0,0,0,0,0,0.0118,0.0132,0.0121,0.0109,0.0107,0.0094,0.0093,0.0093,0.0077,0.0077,0.0077,0.0077,0.005,0.0049,0.0048,0.0046,0,0,0.0046,0.0045,0,0,0,0,0,0,0,0,0.0119,0.0118,0.0111,0.011,0.0108,0.0088,0.0087,0.0077,0.0077,0.0089,0.0077,0.0076,0.0063,0.0061,0.0056,0.0045,0.0043,0.0046,0.0045,0.0045,0.0044,0,0,0,0,0,0,0,0.012,0.0119,0.0111,0.0111,0.0109,0.0095,0.0093,0.0085,0.0077,0.0088,0.0087,0.0083,0.0062,0.0057,0.0056,0.0043,0.0046,0.0045,0.0044,0.0044,0.0053,0.0054,0,0,0,0,0,0,0.0124,0.012,0.0112,0.011,0.0113,0.0095,0.0093,0.0095,0.0077,0.0074,0.0083,0.0082,0.0059,0.0057,0.0055,0.0067,0.0045,0.0044,0.0043,0.0052,0.0053,0.0054,0,0,0,0,0,0,0.0125,0.0124,0.0113,0.0113,0.0111,0.0095,0.0097,0.0095,0.009,0.0074,0.0071,0.0081,0.0059,0.0056,0.0047,0.0065,0.0043,0.0042,0.0051,0.0052,0.0053,0.0081,0,0,0,0,0,0,0.0125,0.0124,0.0129,0.0114,0.0111,0.0112,0.0097,0.0094,0.0087,0.0086,0.0071,0.0068,0.0058,0.0049,0.0046,0.0063,0.0042,0.005,0.0052,0.0053,0.0079,0.0083,0.0086,0,0,0,0,0,0.0126,0.0137,0.013,0.0128,0.0118,0.0113,0.011,0.0098,0.0088,0.0092,0.0076,0.0069,0.0057,0.0048,0.0045,0.0063,0.0049,0.0051,0.0053,0.0078,0.0082,0.0086,0,0,0,0,0,0,0.0145,0.0135,0.0128,0.0135,0.0126,0.011,0.0113,0.0099,0.009,0.0087,0.0069,0.0065,0.0068,0.0061,0.0051,0.0071,0.0056,0.0058,0.0076,0.008,0.0084,0.0106,0.0041,0,0,0,0,0,0.015,0.0154,0.0142,0.0147,0.0146,0.0128,0.0124,0.0114,0.0101,0.0096,0.0087,0.0079,0.0073,0.0072,0.0067,0.0072,0.0057,0.0085,0.0089,0.0092,0.0109,0.0093,0.0096,0.006,0.006,0.006,0,0,0.0157,0.0153,0.0154,0.0151,0.0144,0.0156,0.0126,0.0123,0.0133,0.0095,0.0108,0.0089,0.0076,0.0083,0.0085,0.0079,0.0092,0.0094,0.0097,0.0113,0.0095,0.0098,0.0101,0.0061,0.0061,0.006,0,0,0.0179,0.0173,0.0187,0.0186,0.0179,0.0172,0.0173,0.016,0.0156,0.0153,0.0135,0.0125,0.0117,0.0116,0.0111,0.0133,0.011,0.0134,0.0171,0.0155,0.0157,0.016,0.0132,0.0131,0.0138,0.0138,0.0138,0,0.0188,0.0207,0.0189,0.0207,0.0216,0.0185,0.0208,0.0199,0.0185,0.0189,0.0165,0.0157,0.0137,0.0152,0.0156,0.0143,0.0123,0.0152,0.0159,0.0161,0.0163,0.0133,0.0133,0.014,0.014,0.0139,0.0139,0,0.0225,0.0241,0.0251,0.0267,0.0274,0.0285,0.0277,0.0278,0.0262,0.0254,0.0256,0.0221,0.022,0.0209,0.0184,0.0198,0.0175,0.016,0.0145,0.0168,0.0136,0.0134,0.0142,0.0141,0.0141,0.0141,0,0,0.0247,0.0272,0.0277,0.0301,0.0308,0.032,0.0337,0.035,0.0372,0.034,0.0368,0.0332,0.0307,0.0301,0.0269,0.025,0.0227,0.0212,0.021,0.0181,0.018,0.0131,0.0124,0.0208,0.0208,0.0208,0.0146,0,0.0283,0.0333,0.0335,0.0387,0.0416,0.0405,0.0433,0.0438,0.0429,0.0448,0.0403,0.0416,0.0344,0.0345,0.031,0.026,0.0228,0.0245,0.0167,0.0165,0.0116,0.0123,0.0149,0.0093,0.0145,0.0145,0.0144,0,0.0324,0.0355,0.0411,0.0461,0.0475,0.05,0.0544,0.0562,0.057,0.0568,0.0553,0.0521,0.0494,0.0431,0.0337,0.0349,0.0269,0.0216,0.0212,0.0161,0.0114,0.0083,0.0088,0.0142,0.0142,0.0142,0.0142,0,0.0358,0.0411,0.046,0.0476,0.0524,0.055,0.0576,0.0598,0.0643,0.0649,0.0683,0.0623,0.0619,0.0508,0.0376,0.0361,0.0269,0.0236,0.0113,0.0108,0.0114,0.011,0.0169,0.0169,0.017,0.017,0.017,0,0.0402,0.0442,0.048,0.0509,0.0585,0.0597,0.0677,0.069,0.0742,0.0817,0.0748,0.0792,0.0639,0.0563,0.0418,0.0259,0.0294,0.0125,0.0094,0.0122,0.0119,0.0155,0.0154,0.0167,0.0168,0.0168,0.0169,0,0.0434,0.0454,0.0519,0.0577,0.0603,0.0656,0.0759,0.0826,0.0851,0.0946,0.0962,0.0932,0.0826,0.0649,0.0484,0.0332,0.0178,0.0111,0.0145,0.0118,0.0015,0.0016,-0.0027,-0.003,-0.0031,-0.0033,-0.0034,0,0.0457,0.049,0.0569,0.0628,0.0658,0.0744,0.0821,0.0877,0.0963,0.1039,0.1102,0.1034,0.0994,0.0714,0.0452,0.0184,0.0157,0.0027,-0.0002,0.0024,-0.0003,0.0001,0.0005,0.0012,0.0012,0.0011,0.0011,0,0.0504,0.0524,0.058,0.07,0.0787,0.09,0.1008,0.1094,0.1174,0.1235,0.1309,0.1277,0.1023,0.0765,0.0394,0.0215,0.0066,0.0003,0.0041,0.0053,0.0054,0.003,0.0034,0.0005,0.0005,0.0006,0.0006,0.0006,0.0542,0.059,0.067,0.0787,0.0899,0.1049,0.1141,0.1258,0.1381,0.1464,0.1439,0.1375,0.1102,0.062,0.0325,0.0015,0.0024,-0.0091,-0.0085,-0.008,-0.007,-0.0072,-0.0144,-0.0144,-0.0145,-0.0145,-0.0145,0,0.0606,0.0659,0.0765,0.0908,0.1042,0.1094,0.127,0.1349,0.1477,0.1528,0.1539,0.1257,0.097,0.0656,0.02,-0.0082,-0.0086,-0.0174,-0.0107,-0.01,-0.0094,-0.0082,-0.0161,-0.0162,-0.0163,-0.0163,0,0,0.0644,0.0746,0.0799,0.1007,0.1114,0.1279,0.1376,0.1467,0.1529,0.1549,0.1503,0.1418,0.1056,0.0721,0.0353,0.0101,0.0061,0.0043,0.0084,0.0212,0.0222,-0.0022,0.0007,0,0,0,0,0]}],[{"header":{"parameterUnit":"m.s-1","parameterCategory":2,"la1":30.2991,"la2":30.254,"lo1":-89.0895,"lo2":-89.0444,"dy":0.0017,"dx":0.0017,"nx":28,"ny":28,"refTime":"2025-08-16T21:00:00:Z","depth":"4","parameterNumber":2,"parameterNumberName":"U-component_of_CURRENTS"},"data":[0,0,0,0,0,0,0,0,0,0,0,0,0,0,0,0,0,0,0,0,0,0,0,0,0,0,0,0,0,0,0,0,0,0,0,0,0,0,0,0,0,0,0,0,0,0,0,0,0,0,0,0,0,0,0,0,0,0,0.1505,0.1506,0,0.1544,0.1544,0.1544,0.1573,0.1574,0.1575,0.1576,0.158,0.1579,0.1578,0,0,0,0,0,0,0,0,0,0,0,0,0,0.1426,0.1427,0.1504,0.1506,0.1507,0.1544,0.1544,0.1544,0.1573,0.1574,0.1575,0.1577,0.158,0.1579,0.1578,0,0,0,0,0,0,0,0,0,0,0,0,0,0.1455,0.1427,0.1504,0.1532,0.1536,0.1544,0.1544,0.1544,0.1573,0.1574,0.1576,0.1577,0.158,0.1579,0.1578,0.154,0,0,0.1574,0.1573,0,0,0,0,0,0,0,0,0.1453,0.1457,0.1527,0.153,0.1534,0.1562,0.1518,0.1543,0.1572,0.155,0.1576,0.1578,0.1575,0.1574,0.1567,0.154,0.154,0.1574,0.1573,0.1573,0.1572,0,0,0,0,0,0,0,0.1451,0.1455,0.1512,0.1528,0.1533,0.1534,0.1539,0.1522,0.1546,0.1552,0.1556,0.1573,0.1576,0.1568,0.1567,0.154,0.1574,0.1573,0.1572,0.1572,0.1597,0.1599,0,0,0,0,0,0,0.1463,0.1453,0.1511,0.1514,0.1506,0.1535,0.154,0.1545,0.1548,0.1552,0.1572,0.1575,0.157,0.1569,0.1568,0.1618,0.1573,0.1571,0.1571,0.1596,0.1598,0.1599,0,0,0,0,0,0,0.146,0.1467,0.1509,0.1492,0.1498,0.1535,0.154,0.1545,0.158,0.1565,0.1567,0.1607,0.1571,0.1569,0.159,0.1615,0.1571,0.157,0.1594,0.1597,0.1599,0.1656,0,0,0,0,0,0,0.1458,0.1465,0.1484,0.1492,0.15,0.1533,0.154,0.1545,0.1589,0.1594,0.1595,0.1594,0.1572,0.1592,0.1589,0.1612,0.1569,0.1592,0.1595,0.1598,0.1653,0.166,0.1667,0,0,0,0,0,0.1454,0.1469,0.1484,0.1493,0.152,0.1535,0.1538,0.1564,0.159,0.1601,0.1614,0.1596,0.1608,0.1592,0.1588,0.1611,0.1591,0.1595,0.1598,0.165,0.1659,0.1667,0,0,0,0,0,0,0.145,0.1475,0.1491,0.1516,0.1536,0.1544,0.1567,0.1586,0.1604,0.1618,0.1608,0.1607,0.1634,0.1618,0.1602,0.1629,0.1599,0.1602,0.164,0.1648,0.1655,0.1688,0.1568,0,0,0,0,0,0.1457,0.1476,0.1498,0.1522,0.1536,0.1559,0.1577,0.1591,0.1607,0.1618,0.1629,0.1636,0.1635,0.1642,0.1634,0.1645,0.1657,0.1661,0.1668,0.1674,0.17,0.1741,0.1754,0.161,0.161,0.161,0,0,0.1466,0.1484,0.1497,0.1524,0.1543,0.1561,0.1572,0.1604,0.1627,0.1613,0.1659,0.166,0.1645,0.1659,0.167,0.1655,0.172,0.1678,0.1683,0.1706,0.1745,0.176,0.1772,0.1612,0.1612,0.1611,0,0,0.1479,0.1506,0.1522,0.1539,0.1576,0.1586,0.1607,0.1635,0.1659,0.1691,0.1692,0.1724,0.1721,0.1724,0.172,0.1765,0.1756,0.176,0.1821,0.186,0.1872,0.1883,0.1911,0.1924,0.1764,0.1764,0.1764,0,0.1496,0.1509,0.1531,0.1549,0.1571,0.1604,0.1624,0.1645,0.1683,0.1708,0.1718,0.1763,0.1755,0.1781,0.1802,0.1783,0.1801,0.1785,0.187,0.1881,0.1891,0.1917,0.1931,0.1767,0.1766,0.1766,0.1766,0,0.1507,0.153,0.1543,0.1575,0.16,0.1621,0.1654,0.1694,0.1736,0.1762,0.1821,0.1827,0.1862,0.1859,0.1845,0.1912,0.1899,0.1872,0.1848,0.191,0.1932,0.1946,0.1771,0.177,0.1769,0.1769,0,0,0.1504,0.1543,0.1551,0.1567,0.1613,0.1629,0.1681,0.1727,0.178,0.1827,0.1894,0.1918,0.1955,0.1957,0.1953,0.1991,0.2076,0.1976,0.1976,0.2004,0.2166,0.2016,0.2015,0.2066,0.2069,0.2071,0.215,0,0.1508,0.1535,0.1559,0.1596,0.1609,0.1657,0.1704,0.1757,0.1814,0.1887,0.1926,0.1986,0.1979,0.2016,0.2056,0.2076,0.2116,0.2058,0.2103,0.2105,0.1964,0.2027,0.208,0.216,0.2163,0.2165,0.2167,0,0.1501,0.1518,0.1552,0.1601,0.1617,0.1658,0.1745,0.179,0.189,0.1942,0.2023,0.2062,0.2149,0.2126,0.2219,0.2186,0.2196,0.2202,0.2204,0.2058,0.1979,0.2088,0.2191,0.2189,0.2187,0.2185,0.2184,0,0.1462,0.151,0.1538,0.1554,0.1621,0.1666,0.172,0.1818,0.1873,0.1999,0.2065,0.2157,0.2224,0.2269,0.2304,0.2278,0.2386,0.2339,0.2211,0.22,0.2286,0.2273,0.2405,0.2405,0.2404,0.2404,0.2404,0,0.1429,0.145,0.1533,0.154,0.1593,0.166,0.1743,0.1811,0.1932,0.1998,0.2107,0.217,0.2269,0.2333,0.2345,0.2326,0.2425,0.2244,0.2218,0.2306,0.2295,0.2295,0.2281,0.2407,0.2406,0.2406,0.2405,0,0.1365,0.1419,0.1448,0.1534,0.157,0.1614,0.1743,0.1797,0.1934,0.203,0.2082,0.2217,0.2301,0.2369,0.244,0.2362,0.2365,0.2326,0.2435,0.2409,0.2143,0.2132,0.2196,0.2191,0.2187,0.2184,0.2182,0,0.1322,0.1337,0.1431,0.1449,0.1492,0.1578,0.1631,0.1779,0.1839,0.203,0.2057,0.2201,0.227,0.2264,0.2334,0.2353,0.2312,0.229,0.2205,0.2158,0.2126,0.2121,0.2114,0.2176,0.2175,0.2174,0.2173,0,0.1229,0.1289,0.1313,0.1369,0.1427,0.1477,0.1572,0.1615,0.1782,0.1925,0.1997,0.2047,0.2127,0.2174,0.2205,0.2205,0.2295,0.225,0.2256,0.2176,0.2134,0.2105,0.2103,0.2159,0.2161,0.2163,0.2163,0,0.1156,0.116,0.1219,0.1273,0.1326,0.1351,0.1422,0.1501,0.1593,0.1812,0.1826,0.1978,0.2107,0.2098,0.2127,0.2123,0.2078,0.1985,0.2004,0.202,0.1921,0.1839,0.1771,0,0,0,0,0,0.1061,0.1068,0.111,0.115,0.1207,0.1255,0.1361,0.1444,0.1622,0.1627,0.173,0.18,0.1856,0.1928,0.1888,0.2031,0.2075,0.1971,0.1975,0.2086,0.2102,0.1999,0,0,0,0,0,0,0.0989,0.1004,0.1071,0.1063,0.1072,0.1125,0.1192,0.131,0.1329,0.151,0.1557,0.1681,0.1768,0.1873,0.1855,0.1874,0.1833,0.2065,0.206,0.2078,0.2092,0.2104,0.2004,0,0,0,0,0]},{"header":{"parameterUnit":"m.s-1","parameterCategory":2,"la1":30.2991,"la2":30.254,"lo1":-89.0895,"lo2":-89.0444,"dy":0.0017,"dx":0.0017,"nx":28,"ny":28,"refTime":"2025-08-16T21:00:00:Z","depth":"4","parameterNumber":3,"parameterNumberName":"V-component_of_CURRENTS"},"data":[0,0,0,0,0,0,0,0,0,0,0,0,0,0,0,0,0,0,0,0,0,0,0,0,0,0,0,0,0,0,0,0,0,0,0,0,0,0,0,0,0,0,0,0,0,0,0,0,0,0,0,0,0,0,0,0,0,0,0.0122,0.0122,0,0.011,0.011,0.011,0.0109,0.0109,0.0109,0.0109,0.0111,0.0111,0.0111,0,0,0,0,0,0,0,0,0,0,0,0,0,0.0117,0.0117,0.0122,0.0122,0.0122,0.011,0.011,0.011,0.0109,0.0109,0.0109,0.0109,0.0111,0.0111,0.0111,0,0,0,0,0,0,0,0,0,0,0,0,0,0.0114,0.0117,0.0122,0.0119,0.0119,0.011,0.011,0.011,0.0109,0.0109,0.0109,0.0109,0.0111,0.0111,0.0111,0.0108,0,0,0.0111,0.0111,0,0,0,0,0,0,0,0,0.0114,0.0114,0.012,0.012,0.0119,0.0111,0.0109,0.011,0.0109,0.0113,0.0109,0.0109,0.0112,0.0112,0.011,0.0108,0.0108,0.0111,0.0111,0.0111,0.0111,0,0,0,0,0,0,0,0.0114,0.0114,0.0118,0.012,0.0119,0.0109,0.0109,0.0109,0.0113,0.0113,0.0113,0.011,0.0112,0.011,0.011,0.0108,0.0111,0.0111,0.0111,0.0111,0.012,0.0121,0,0,0,0,0,0,0.0116,0.0115,0.0118,0.0118,0.0116,0.0109,0.0109,0.0114,0.0112,0.0112,0.011,0.011,0.011,0.011,0.011,0.0126,0.0111,0.0111,0.0111,0.012,0.012,0.0121,0,0,0,0,0,0,0.0116,0.0117,0.0119,0.0115,0.0114,0.0109,0.0114,0.0113,0.0114,0.011,0.011,0.0111,0.011,0.011,0.0113,0.0126,0.0111,0.0111,0.012,0.012,0.0121,0.0147,0,0,0,0,0,0,0.0116,0.0117,0.0122,0.0115,0.0115,0.012,0.0114,0.0113,0.0112,0.0112,0.0111,0.0111,0.011,0.0113,0.0113,0.0125,0.011,0.0119,0.012,0.012,0.0145,0.0148,0.015,0,0,0,0,0,0.0116,0.0126,0.0123,0.0123,0.0122,0.0121,0.012,0.0116,0.0112,0.0116,0.0113,0.0111,0.0117,0.0114,0.0113,0.0126,0.0119,0.012,0.012,0.0144,0.0147,0.015,0,0,0,0,0,0,0.0128,0.0126,0.0123,0.0132,0.0128,0.012,0.0125,0.0117,0.0118,0.0119,0.0113,0.0114,0.0123,0.0118,0.0114,0.0129,0.0118,0.0119,0.0137,0.0139,0.0142,0.0147,0.011,0,0,0,0,0,0.0131,0.0138,0.0132,0.0139,0.0141,0.0132,0.013,0.0126,0.0123,0.0123,0.0124,0.0123,0.0124,0.0127,0.0128,0.0134,0.0107,0.0142,0.0144,0.0146,0.0151,0.0112,0.011,0.0123,0.0123,0.0123,0,0,0.0136,0.0137,0.0139,0.0141,0.014,0.015,0.0132,0.0134,0.014,0.0124,0.0139,0.0132,0.0127,0.0137,0.0141,0.0135,0.0127,0.0147,0.0149,0.0152,0.0112,0.0111,0.0109,0.0123,0.0123,0.0123,0,0,0.0151,0.0152,0.0163,0.0166,0.0165,0.0162,0.0163,0.0159,0.0158,0.0164,0.0155,0.0153,0.0159,0.0156,0.0155,0.0168,0.014,0.0172,0.019,0.0152,0.015,0.0149,0.0104,0.0099,0.0173,0.0173,0.0173,0,0.0155,0.0172,0.0165,0.018,0.0188,0.017,0.0187,0.0183,0.018,0.0181,0.0175,0.0174,0.0169,0.0172,0.0179,0.0174,0.0144,0.018,0.0154,0.0152,0.015,0.0105,0.0098,0.0175,0.0175,0.0174,0.0174,0,0.0181,0.0195,0.0204,0.022,0.0226,0.0236,0.0232,0.0237,0.0231,0.0225,0.0225,0.021,0.021,0.0206,0.0199,0.0188,0.0168,0.016,0.0146,0.015,0.0102,0.0095,0.0177,0.0176,0.0176,0.0175,0,0,0.0191,0.0217,0.0221,0.024,0.0249,0.0259,0.0272,0.0278,0.0289,0.0274,0.0281,0.027,0.0255,0.0251,0.0234,0.0202,0.0158,0.0179,0.0176,0.0133,0.0065,0.0059,0.0049,0.0142,0.0141,0.014,0.0034,0,0.0214,0.0252,0.0257,0.0295,0.0317,0.0314,0.0332,0.0333,0.0328,0.0331,0.0297,0.0301,0.0273,0.0275,0.0236,0.0184,0.0141,0.0187,0.0069,0.0065,0.0058,0.0042,0.0138,0.0028,0.0027,0.0025,0.0024,0,0.0239,0.0264,0.0306,0.0343,0.0353,0.0373,0.04,0.0412,0.0404,0.04,0.0381,0.0355,0.0316,0.0289,0.0183,0.0212,0.0143,0.009,0.0085,0.0067,0.0046,0.0025,0.001,0.0011,0.0012,0.0013,0.0014,0,0.0256,0.0298,0.0335,0.0349,0.0386,0.0407,0.0427,0.0435,0.0459,0.0444,0.0452,0.0391,0.037,0.0273,0.0168,0.0173,0.0037,0.0029,-0.0049,-0.0051,-0.0025,-0.0022,-0.0057,-0.0057,-0.0056,-0.0056,-0.0056,0,0.028,0.031,0.0349,0.0372,0.0426,0.0439,0.0493,0.0498,0.0517,0.0546,0.0492,0.0488,0.0364,0.0276,0.017,0.0036,0.0033,-0.0051,-0.0078,-0.0013,-0.0007,-0.0032,-0.0027,-0.006,-0.0059,-0.0058,-0.0058,0,0.0293,0.0315,0.0366,0.0415,0.0437,0.0478,0.0551,0.0589,0.0593,0.0626,0.0626,0.0557,0.0441,0.0303,0.014,0.0049,-0.0082,-0.0131,-0.0058,-0.0078,-0.0148,-0.0141,-0.023,-0.0231,-0.0232,-0.0232,-0.0233,0,0.0303,0.0329,0.04,0.0441,0.0469,0.0537,0.059,0.0627,0.0668,0.0667,0.068,0.0584,0.0518,0.0282,0.013,-0.0087,-0.0113,-0.0192,-0.0165,-0.0149,-0.0166,-0.0157,-0.0149,-0.0234,-0.0235,-0.0235,-0.0235,0,0.0324,0.0348,0.0393,0.0478,0.0544,0.0623,0.0692,0.0727,0.0763,0.0767,0.0728,0.0609,0.0472,0.0288,0.0115,-0.0037,-0.0145,-0.0202,-0.0201,-0.0176,-0.0156,-0.017,-0.0161,-0.0238,-0.0238,-0.0238,-0.0237,0,0.034,0.0375,0.0436,0.0516,0.0596,0.0675,0.0716,0.0761,0.08,0.0791,0.0772,0.0628,0.0544,0.0312,0.0155,0.0002,-0.0034,-0.0085,-0.009,-0.0089,-0.0013,0.0035,-0.0016,0,0,0,0,0,0.0357,0.0402,0.0472,0.0558,0.0638,0.0691,0.077,0.0805,0.0832,0.0815,0.0798,0.0673,0.0442,0.0341,0.0188,0.0128,-0.0069,-0.0058,-0.0132,-0.0256,-0.0252,-0.0188,0,0,0,0,0,0,0.0368,0.0432,0.0471,0.0578,0.0641,0.0738,0.0791,0.0815,0.0805,0.0802,0.0686,0.0629,0.0408,0.0533,0.0184,0.0137,0.0066,-0.0163,-0.0167,-0.0258,-0.0255,-0.0252,-0.0184,0,0,0,0,0]}]]